1506848401.05,44384,18.94,74296.5,10.79,-35.47,-36.55,0,*4D
1506848402.32,44385,18.94,74296.3,10.79,-35.65,-36.61,0,*4B
1506848403.54,44386,18.94,74294.5,10.81,-36.37,-37.33,0,*4D
1506848404.75,44387,18.88,74294.8,10.81,-35.59,-36.37,0,*42
1506848405.97,44388,18.94,74296.8,10.83,-36.19,-37.27,0,*48
1506848407.2,44389,18.88,74294.5,10.81,-36.67,-37.81,0,*4E
1506848408.42,44390,18.94,74294.3,10.83,-36.31,-37.27,0,*4B
1506848409.67,44391,18.94,74296.8,10.83,-35.77,-36.91,0,*47
1506848410.91,44392,18.94,74292.3,10.83,-36.91,-38.05,0,*4C
1506848412.16,44393,18.94,74294.8,10.85,-37.63,-38.67,0,*43
1506848413.43,44394,18.94,74292.3,10.83,-37.99,-39.15,0,*43
1506848414.68,44395,18.94,74292.5,10.83,-38.79,-39.85,0,*4A
1506848415.9,44396,18.88,74292.3,10.81,-38.29,-39.47,0,*40
1506848417.13,44397,18.94,74292.5,10.81,-37.81,-38.85,0,*43
1506848418.37,44398,18.88,74292.0,10.81,-37.39,-38.67,0,*43
1506848419.59,44399,18.88,74290.5,10.83,-36.31,-37.45,0,*46
1506848420.84,44400,18.88,74292.8,10.83,-37.27,-38.49,0,*44
1506848422.09,44401,18.88,74292.0,10.83,-37.27,-38.29,0,*43
1506848423.31,44402,18.88,74288.3,10.83,-38.97,-40.03,0,*43
1506848424.53,44403,18.88,74288.8,10.81,-38.17,-39.23,0,*44
1506848425.77,44404,18.88,74294.8,10.81,-37.69,-39.29,0,*4F
1506848427.02,44405,18.88,74292.8,10.79,-38.05,-39.23,0,*46
1506848428.29,44406,18.88,74290.3,10.79,-39.23,-40.41,0,*4A
1506848429.54,44407,18.88,74290.3,10.79,-40.21,-41.61,0,*44
1506848430.78,44408,18.88,74290.5,10.75,-40.53,-41.81,0,*4C
1506848432.06,44409,18.88,74288.0,10.75,-39.15,-40.41,0,*4C
1506848433.29,44410,18.88,74290.5,10.73,-40.03,-41.23,0,*4E
1506848434.56,44411,18.88,74288.8,10.71,-40.59,-42.05,0,*45
1506848435.79,44412,18.88,74286.5,10.69,-40.59,-41.87,0,*46
1506848437.01,44413,18.88,74290.0,10.67,-40.09,-41.49,0,*4E
1506848438.28,44414,18.88,74290.0,10.63,-39.79,-41.35,0,*4F
1506848439.53,44415,18.88,74288.8,10.63,-41.55,-42.83,0,*41
1506848440.77,44416,18.88,74290.5,10.59,-41.23,-42.63,0,*44
1506848442.02,44417,18.88,74290.3,10.57,-41.87,-42.95,0,*4C
1506848443.24,44418,18.88,74290.3,10.55,-40.65,-41.93,0,*49
1506848444.48,44419,18.88,74288.0,10.55,-39.47,-40.85,0,*40
1506848445.68,44420,18.88,74288.3,10.51,-38.85,-40.03,0,*4F
1506848446.93,44421,18.88,74290.8,10.51,-38.23,-39.41,0,*4A
1506848448.18,44422,18.88,74284.3,10.53,-38.61,-39.71,0,*4E
1506848449.44,44423,18.88,74288.8,10.53,-36.73,-37.81,0,*43
1506848450.67,44424,18.88,74290.0,10.55,-36.97,-38.11,0,*4E
1506848451.88,44425,18.88,74288.0,10.55,-37.33,-38.35,0,*46
1506848453.11,44426,18.88,74286.0,10.55,-36.85,-37.99,0,*40
1506848454.39,44427,18.81,74286.3,10.57,-36.61,-37.81,0,*40
1506848455.65,44428,18.88,74288.8,10.59,-37.09,-38.29,0,*43
1506848456.9,44429,18.88,74288.5,10.59,-36.79,-37.93,0,*4A
1506848458.16,44430,18.81,74288.5,10.61,-36.73,-37.99,0,*49
1506848459.41,44431,18.88,74288.8,10.61,-36.73,-37.81,0,*41
1506848460.63,44432,18.88,74290.5,10.61,-37.03,-38.05,0,*47
1506848461.88,44433,18.81,74290.5,10.63,-37.51,-38.67,0,*47
1506848463.13,44434,18.81,74290.8,10.61,-39.23,-40.35,0,*41
1506848464.41,44435,18.88,74288.0,10.61,-38.49,-39.71,0,*43
1506848465.64,44436,18.88,74288.0,10.59,-38.91,-40.03,0,*45
1506848466.88,44437,18.88,74290.5,10.61,-38.35,-39.53,0,*4A
1506848468.11,44438,18.81,74286.8,10.59,-37.87,-38.91,0,*47
1506848469.34,44439,18.81,74288.8,10.59,-37.87,-38.91,0,*46
1506848470.59,44440,18.81,74288.0,10.59,-38.29,-39.23,0,*4B
1506848471.85,44441,18.88,74292.3,10.61,-38.61,-39.79,0,*42
1506848473.1,44442,18.81,74290.5,10.59,-39.23,-40.41,0,*48
1506848474.36,44443,18.81,74290.0,10.59,-39.59,-40.79,0,*4F
1506848475.58,44444,18.81,74288.8,10.59,-40.21,-41.49,0,*4B
1506848476.82,44445,18.81,74290.5,10.55,-41.67,-42.75,0,*49
1506848478.1,44446,18.81,74290.8,10.53,-40.97,-42.31,0,*42
1506848479.33,44447,18.81,74292.0,10.53,-39.35,-40.35,0,*43
1506848480.57,44448,18.81,74292.0,10.53,-38.55,-39.53,0,*45
1506848481.82,44449,18.81,74292.0,10.51,-38.11,-39.29,0,*4B
1506848483.07,44450,18.81,74292.0,10.51,-38.23,-39.29,0,*42
1506848484.35,44451,18.81,74292.3,10.53,-36.49,-37.39,0,*4C
1506848485.6,44452,18.81,74288.5,10.53,-35.89,-36.91,0,*43
1506848486.85,44453,18.81,74284.5,10.57,-35.83,-36.97,0,*4A
1506848488.06,44454,18.81,74290.0,10.55,-36.01,-37.15,0,*4D
1506848489.28,44455,18.81,74288.3,10.61,-36.19,-37.27,0,*43
1506848490.55,44456,18.81,74290.8,10.61,-36.91,-37.81,0,*4C
1506848491.81,44457,18.81,74288.0,10.61,-36.85,-37.99,0,*41
1506848493.06,44458,18.81,74294.3,10.61,-36.55,-37.69,0,*4C
1506848494.31,44459,18.81,74290.3,10.61,-37.09,-38.17,0,*43
1506848495.53,44460,18.81,74294.0,10.63,-36.19,-37.21,0,*41
1506848496.78,44461,18.81,74290.3,10.67,-36.79,-37.93,0,*4B
1506848498.0,44462,18.81,74294.8,10.67,-36.97,-37.93,0,*48
1506848499.19,44463,18.81,74294.3,10.67,-37.57,-38.73,0,*45
1506848500.38,44464,18.81,74292.5,10.67,-38.17,-39.35,0,*4A
1506848501.61,44465,18.81,74290.8,10.67,-38.61,-39.71,0,*4A
1506848502.83,44466,18.81,74292.0,10.67,-38.17,-39.15,0,*4A
1506848504.08,44467,18.81,74290.5,10.63,-37.69,-38.79,0,*42
1506848505.29,44468,18.81,74288.3,10.63,-36.73,-37.87,0,*49
1506848506.55,44469,18.81,74288.0,10.67,-37.21,-38.29,0,*41
1506848507.77,44470,18.81,74288.5,10.67,-36.13,-36.97,0,*42
1506848509.02,44471,18.75,74288.0,10.67,-37.63,-38.79,0,*4B
1506848510.24,44472,18.75,74288.8,10.67,-37.75,-38.79,0,*4F
1506848511.49,44473,18.75,74290.3,10.69,-36.25,-37.39,0,*4F
1506848512.74,44474,18.81,74290.5,10.71,-36.55,-37.69,0,*43
1506848514.03,44475,18.75,74288.3,10.71,-37.39,-38.49,0,*44
1506848515.28,44476,18.81,74292.0,10.71,-36.43,-37.39,0,*43
1506848516.51,44477,18.75,74288.8,10.71,-36.55,-37.33,0,*4F
1506848517.76,44478,18.75,74288.8,10.71,-36.91,-38.05,0,*42
1506848519.02,44479,18.75,74290.8,10.75,-36.91,-37.87,0,*42
1506848520.27,44480,18.75,74290.8,10.75,-37.09,-38.17,0,*42
1506848521.5,44481,18.75,74292.5,10.73,-37.03,-37.99,0,*46
1506848522.72,44482,18.75,74294.0,10.75,-35.89,-36.85,0,*4F
1506848523.91,44483,18.75,74294.8,10.77,-36.31,-37.27,0,*45
1506848525.14,44484,18.75,74294.0,10.77,-37.81,-38.97,0,*4C
1506848526.36,44485,18.75,74290.8,10.77,-37.21,-38.17,0,*4F
1506848527.56,44486,18.75,74290.3,10.77,-39.09,-40.35,0,*47
1506848528.82,44487,18.75,74294.3,10.75,-39.59,-40.73,0,*43
1506848530.07,44488,18.75,74288.8,10.73,-39.03,-40.21,0,*42
1506848531.28,44489,18.75,74290.8,10.73,-40.15,-41.41,0,*4D
1506848532.51,44490,18.75,74290.8,10.69,-40.29,-41.41,0,*41
1506848533.74,44491,18.75,74288.5,10.69,-39.65,-40.79,0,*4C
1506848534.97,44492,18.75,74290.3,10.63,-40.41,-41.73,0,*46
1506848536.22,44493,18.75,74292.8,10.63,-38.79,-39.71,0,*4E
1506848537.45,44494,18.75,74294.0,10.63,-37.51,-38.61,0,*4C
1506848538.73,44495,18.75,74294.8,10.61,-37.63,-38.67,0,*48
1506848539.95,44496,18.75,74292.5,10.63,-36.91,-38.17,0,*42
1506848541.21,44497,18.75,74292.0,10.63,-37.69,-38.67,0,*42
1506848542.4,44498,18.75,74292.3,10.67,-37.15,-38.17,0,*45
1506848543.64,44499,18.75,74290.5,10.63,-36.73,-37.81,0,*41
1506848544.87,44500,18.75,74288.3,10.67,-37.21,-38.55,0,*44
1506848546.1,44501,18.75,74290.0,10.67,-37.99,-39.09,0,*4E
1506848547.32,44502,18.75,74284.8,10.63,-38.97,-39.97,0,*4F
1506848548.56,44503,18.75,74288.0,10.63,-39.97,-41.93,0,*44
1506848549.83,44504,18.75,74288.5,10.61,-40.59,-41.81,0,*4E
1506848551.04,44505,18.75,74288.8,10.59,-41.41,-42.63,0,*43
1506848552.29,44506,18.75,74288.5,10.59,-40.97,-42.05,0,*4A
1506848553.52,44507,18.75,74286.8,10.57,-39.47,-40.65,0,*42
1506848554.72,44508,18.75,74288.8,10.55,-41.03,-42.13,0,*43
1506848555.96,44509,18.75,74286.0,10.55,-37.99,-39.09,0,*47
1506848557.21,44510,18.75,74290.0,10.53,-37.69,-38.85,0,*43
1506848558.46,44511,18.75,74286.5,10.53,-38.97,-39.97,0,*4E
1506848559.68,44512,18.75,74286.5,10.53,-37.45,-38.55,0,*42
1506848560.88,44513,18.75,74284.0,10.55,-36.43,-37.45,0,*4C
1506848562.12,44514,18.75,74286.5,10.55,-37.33,-38.29,0,*48
1506848563.34,44515,18.75,74286.5,10.57,-36.07,-37.03,0,*4A
1506848564.6,44516,18.69,74284.8,10.59,-36.37,-37.39,0,*4D
1506848565.83,44517,18.69,74284.3,10.59,-36.01,-37.09,0,*4A
1506848567.05,44518,18.75,74286.0,10.61,-36.31,-37.45,0,*45
1506848568.3,44519,18.75,74286.0,10.61,-36.19,-37.09,0,*46
1506848569.49,44520,18.69,74284.8,10.67,-37.45,-38.43,0,*43
1506848570.73,44521,18.75,74284.8,10.63,-36.73,-37.81,0,*43
1506848571.96,44522,18.69,74282.0,10.67,-36.85,-37.81,0,*4D
1506848573.18,44523,18.75,74290.3,10.67,-37.39,-38.55,0,*4C
1506848574.41,44524,18.69,74286.3,10.67,-36.97,-37.99,0,*41
1506848575.67,44525,18.69,74288.5,10.67,-37.21,-38.29,0,*48
1506848576.87,44526,18.69,74284.8,10.69,-36.07,-36.97,0,*4B
1506848578.12,44527,18.69,74286.8,10.71,-37.33,-38.49,0,*48
1506848579.38,44528,18.69,74284.0,10.69,-36.91,-37.93,0,*4F
1506848580.66,44529,18.69,74290.3,10.71,-37.39,-38.49,0,*4C
1506848581.92,44530,18.69,74288.8,10.69,-37.21,-38.23,0,*48
1506848583.17,44531,18.69,74290.3,10.71,-38.55,-39.41,0,*49
1506848584.4,44532,18.69,74286.8,10.69,-36.61,-37.87,0,*4E
1506848585.66,44533,18.69,74286.0,10.71,-36.79,-37.87,0,*4F
1506848586.91,44534,18.69,74284.0,10.71,-37.69,-38.55,0,*48
1506848588.19,44535,18.69,74284.3,10.71,-36.91,-37.93,0,*4A
1506848589.42,44536,18.69,74284.5,10.71,-36.73,-37.57,0,*4D
1506848590.68,44537,18.69,74284.5,10.71,-36.91,-37.75,0,*40
1506848591.96,44538,18.69,74286.3,10.71,-37.39,-38.67,0,*40
1506848593.19,44539,18.69,74282.3,10.71,-36.97,-37.87,0,*45
1506848594.41,44540,18.69,74286.3,10.73,-36.55,-37.69,0,*47
1506848595.61,44541,18.69,74290.0,10.73,-37.15,-38.05,0,*46
1506848596.86,44542,18.69,74290.3,10.75,-36.55,-37.69,0,*43
1506848598.13,44543,18.69,74288.0,10.75,-37.99,-39.03,0,*41
1506848599.39,44544,18.69,74290.8,10.73,-39.59,-40.59,0,*43
1506848600.64,44545,18.69,74288.5,10.71,-38.67,-39.85,0,*43
1506848601.86,44546,18.69,74288.0,10.69,-38.35,-39.23,0,*42
1506848603.12,44547,18.69,74288.5,10.71,-36.91,-37.87,0,*4A
1506848604.4,44548,18.69,74290.3,10.71,-36.37,-37.21,0,*45
1506848605.67,44549,18.69,74288.0,10.71,-36.61,-37.69,0,*4B
1506848606.88,44550,18.69,74288.0,10.73,-36.73,-37.87,0,*42
1506848608.15,44551,18.69,74286.5,10.75,-37.51,-38.67,0,*45
1506848609.38,44552,18.69,74290.3,10.73,-37.09,-38.17,0,*4A
1506848610.6,44553,18.69,74288.8,10.73,-37.99,-38.97,0,*4A
1506848611.83,44554,18.69,74290.5,10.73,-37.27,-38.29,0,*4D
1506848613.05,44555,18.69,74288.5,10.73,-37.87,-39.03,0,*4F
1506848614.28,44556,18.69,74292.5,10.73,-36.73,-37.81,0,*42
1506848615.5,44557,18.69,74288.5,10.73,-35.95,-36.85,0,*4D
1506848616.7,44558,18.69,74288.8,10.73,-35.89,-36.85,0,*4F
1506848617.92,44559,18.69,74290.8,10.73,-36.13,-37.15,0,*46
1506848619.12,44560,18.69,74284.8,10.77,-37.45,-38.55,0,*41
1506848620.37,44561,18.69,74286.5,10.77,-37.81,-39.29,0,*42
1506848621.62,44562,18.69,74288.0,10.75,-37.63,-38.61,0,*42
1506848622.84,44563,18.69,74286.8,10.75,-35.89,-36.85,0,*41
1506848624.07,44564,18.63,74288.5,10.77,-36.31,-37.39,0,*42
1506848625.31,44565,18.69,74290.0,10.77,-37.39,-38.23,0,*4E
1506848626.53,44566,18.69,74292.0,10.77,-36.61,-37.45,0,*4E
1506848627.79,44567,18.69,74294.0,10.79,-39.09,-40.09,0,*48
1506848628.97,44568,18.63,74290.0,10.77,-38.35,-39.35,0,*46
1506848630.2,44569,18.63,74288.3,10.75,-37.15,-38.17,0,*49
1506848631.47,44570,18.69,74288.5,10.75,-38.29,-39.41,0,*43
1506848632.71,44571,18.63,74288.8,10.75,-38.23,-39.35,0,*4B
1506848633.99,44572,18.63,74288.8,10.75,-38.49,-39.41,0,*47
1506848635.24,44573,18.69,74292.0,10.75,-37.69,-38.61,0,*48
1506848636.46,44574,18.63,74288.3,10.73,-37.09,-38.05,0,*4D
1506848637.71,44575,18.63,74290.0,10.75,-37.69,-38.85,0,*44
1506848638.96,44576,18.63,74288.8,10.75,-37.63,-38.61,0,*47
1506848640.22,44577,18.63,74290.0,10.73,-36.91,-37.63,0,*41
1506848641.44,44578,18.63,74288.8,10.75,-36.31,-37.27,0,*42
1506848642.7,44579,18.63,74294.5,10.75,-37.27,-38.23,0,*4E
1506848643.92,44580,18.63,74288.3,10.75,-37.27,-38.43,0,*4E
1506848645.15,44581,18.63,74294.5,10.77,-36.43,-37.51,0,*42
1506848646.37,44582,18.63,74292.3,10.77,-35.95,-36.97,0,*42
1506848647.65,44583,18.63,74294.0,10.79,-36.91,-37.93,0,*4F
1506848648.92,44584,18.63,74294.3,10.79,-36.37,-37.39,0,*44
1506848650.18,44585,18.63,74292.5,10.79,-35.65,-36.55,0,*4A
1506848651.4,44586,18.63,74294.8,10.81,-36.43,-37.51,0,*4C
1506848652.62,44587,18.63,74292.3,10.81,-36.73,-37.69,0,*45
1506848653.9,44588,18.63,74298.8,10.83,-37.09,-38.11,0,*44
1506848655.12,44589,18.63,74296.0,10.81,-36.97,-37.93,0,*44
1506848656.37,44590,18.63,74288.5,10.83,-37.09,-38.05,0,*48
1506848657.59,44591,18.63,74292.3,10.83,-35.71,-36.67,0,*4E
1506848658.82,44592,18.63,74290.0,10.81,-36.55,-37.51,0,*4E
1506848660.07,44593,18.63,74292.8,10.83,-37.27,-38.23,0,*43
1506848661.27,44594,18.63,74288.8,10.85,-37.87,-38.85,0,*44
1506848662.54,44595,18.63,74292.3,10.83,-38.11,-39.23,0,*4E
1506848663.76,44596,18.63,74290.0,10.81,-36.19,-37.09,0,*4F
1506848665.04,44597,18.63,74288.5,10.83,-36.49,-37.51,0,*44
1506848666.26,44598,18.63,74290.3,10.85,-36.91,-38.05,0,*46
1506848667.51,44599,18.63,74294.3,10.83,-38.61,-39.79,0,*4A
1506848668.74,44600,18.63,74290.3,10.81,-36.97,-37.99,0,*4C
1506848670.01,44601,18.63,74290.3,10.83,-37.51,-38.49,0,*46
1506848671.26,44602,18.63,74292.0,10.83,-37.51,-38.61,0,*4F
1506848672.48,44603,18.63,74292.0,10.81,-37.57,-38.49,0,*40
1506848673.75,44604,18.63,74292.8,10.83,-36.13,-37.09,0,*4F
1506848675.03,44605,18.63,74292.3,10.83,-36.91,-37.99,0,*4D
1506848676.26,44606,18.63,74294.5,10.85,-37.87,-38.79,0,*4F
1506848677.5,44607,18.63,74292.3,10.83,-37.69,-38.85,0,*4B
1506848678.76,44608,18.63,74294.3,10.83,-37.81,-38.85,0,*42
1506848680.01,44609,18.63,74296.5,10.83,-37.63,-38.61,0,*45
1506848681.23,44610,18.63,74296.8,10.81,-36.97,-38.11,0,*42
1506848682.45,44611,18.63,74294.8,10.83,-36.19,-37.15,0,*4C
1506848683.7,44612,18.63,74296.5,10.83,-36.55,-37.51,0,*47
1506848684.93,44613,18.63,74294.0,10.85,-36.73,-37.69,0,*4F
1506848686.15,44614,18.63,74296.3,10.85,-36.13,-36.97,0,*4E
1506848687.39,44615,18.63,74294.0,10.89,-36.13,-37.39,0,*46
1506848688.64,44616,18.63,74294.3,10.85,-38.29,-39.41,0,*4F
1506848689.89,44617,18.63,74296.3,10.85,-37.69,-38.67,0,*40
1506848691.14,44618,18.63,74292.5,10.85,-37.51,-38.49,0,*48
1506848692.35,44619,18.63,74292.3,10.85,-38.29,-39.35,0,*43
1506848693.59,44620,18.63,74290.0,10.83,-38.05,-39.03,0,*44
1506848694.87,44621,18.63,74292.8,10.83,-37.51,-38.49,0,*44
1506848696.1,44622,18.63,74296.3,10.85,-36.55,-37.63,0,*43
1506848697.33,44623,18.56,74290.5,10.85,-37.99,-38.85,0,*44
1506848698.55,44624,18.63,74292.0,10.85,-36.85,-37.81,0,*44
1506848699.8,44625,18.63,74288.5,10.85,-37.09,-38.11,0,*46
1506848701.03,44626,18.63,74294.3,10.85,-37.45,-38.49,0,*40
1506848702.28,44627,18.63,74294.8,10.85,-37.99,-38.79,0,*43
1506848703.53,44628,18.63,74292.0,10.83,-36.97,-37.99,0,*44
1506848704.76,44629,18.63,74294.3,10.85,-37.87,-38.67,0,*4D
1506848706.01,44630,18.56,74294.5,10.83,-37.69,-38.61,0,*45
1506848707.23,44631,18.63,74292.0,10.81,-37.81,-38.73,0,*43
1506848708.48,44632,18.56,74292.8,10.81,-37.51,-38.49,0,*44
1506848709.7,44633,18.63,74292.5,10.83,-37.87,-38.97,0,*4F
1506848710.94,44634,18.56,74292.0,10.83,-36.49,-37.45,0,*4B
1506848712.2,44635,18.63,74294.0,10.83,-35.95,-37.15,0,*4D
1506848713.41,44636,18.56,74294.0,10.89,-36.49,-37.45,0,*43
1506848714.61,44637,18.63,74294.8,10.85,-36.31,-37.33,0,*40
1506848715.84,44638,18.56,74294.0,10.85,-37.87,-38.67,0,*4D
1506848717.09,44639,18.56,74292.5,10.85,-37.63,-38.67,0,*46
1506848718.34,44640,18.56,74288.3,10.85,-37.81,-39.03,0,*47
1506848719.57,44641,18.63,74294.3,10.85,-38.49,-39.65,0,*4D
1506848720.82,44642,18.56,74288.8,10.85,-38.67,-39.79,0,*4F
1506848722.06,44643,18.56,74290.3,10.83,-37.45,-38.49,0,*45
1506848723.29,44644,18.56,74290.0,10.81,-36.73,-37.81,0,*4F
1506848724.54,44645,18.56,74292.0,10.83,-36.37,-37.33,0,*45
1506848725.79,44646,18.56,74292.3,10.83,-37.27,-38.29,0,*42
1506848727.04,44647,18.63,74296.3,10.83,-37.81,-38.85,0,*49
1506848728.3,44648,18.56,74292.3,10.83,-36.73,-37.63,0,*4D
1506848729.49,44649,18.56,74290.5,10.85,-36.55,-37.45,0,*4A
1506848730.72,44650,18.56,74292.0,10.85,-36.43,-37.39,0,*4E
1506848731.98,44651,18.56,74294.3,10.89,-36.61,-37.63,0,*4C
1506848733.22,44652,18.56,74292.3,10.85,-38.11,-39.03,0,*42
1506848734.44,44653,18.56,74294.5,10.89,-37.21,-38.17,0,*47
1506848735.64,44654,18.56,74292.3,10.85,-37.03,-38.05,0,*4F
1506848736.87,44655,18.56,74292.5,10.89,-38.61,-39.59,0,*41
1506848738.07,44656,18.56,74292.8,10.85,-39.47,-40.65,0,*4A
1506848739.32,44657,18.56,74296.5,10.85,-37.81,-38.79,0,*4D
1506848740.58,44658,18.56,74292.8,10.83,-36.67,-37.63,0,*49
1506848741.79,44659,18.56,74296.5,10.85,-35.77,-36.55,0,*48
1506848743.01,44660,18.56,74292.8,10.89,-35.89,-36.79,0,*41
1506848744.28,44661,18.56,74294.5,10.91,-35.83,-36.79,0,*43
1506848745.52,44662,18.56,74288.3,10.89,-36.79,-37.93,0,*4A
1506848746.75,44663,18.56,74290.0,10.91,-36.19,-37.15,0,*4A
1506848748.02,44664,18.56,74290.5,10.91,-35.83,-36.79,0,*46
1506848749.28,44665,18.56,74290.8,10.91,-36.97,-37.93,0,*44
1506848750.52,44666,18.56,74292.5,10.93,-36.79,-37.69,0,*40
1506848751.77,44667,18.56,74288.5,10.91,-36.43,-37.39,0,*4F
1506848752.97,44668,18.56,74288.3,10.93,-36.19,-37.15,0,*43
1506848754.22,44669,18.56,74294.8,10.93,-36.25,-37.21,0,*4A
1506848755.42,44670,18.56,74292.0,10.93,-38.73,-39.91,0,*4A
1506848756.65,44671,18.56,74296.0,10.93,-39.91,-40.85,0,*4D
1506848757.9,44672,18.56,74292.5,10.91,-38.35,-39.29,0,*4B
1506848759.14,44673,18.56,74294.3,10.91,-38.67,-39.85,0,*4B
1506848760.39,44674,18.56,74296.3,10.91,-38.17,-39.23,0,*47
1506848761.61,44675,18.56,74292.0,10.89,-37.63,-38.61,0,*44
1506848762.81,44676,18.56,74292.8,10.89,-36.43,-37.27,0,*49
1506848764.04,44677,18.56,74294.5,10.91,-36.85,-37.87,0,*41
1506848765.27,44678,18.56,74298.3,10.91,-36.73,-37.57,0,*4A
1506848766.52,44679,18.56,74292.8,10.91,-36.79,-37.75,0,*41
1506848767.76,44680,18.56,74296.3,10.93,-35.65,-36.61,0,*4F
1506848768.98,44681,18.56,74290.3,10.93,-36.19,-37.21,0,*43
1506848770.18,44682,18.56,74290.3,10.93,-37.15,-38.17,0,*47
1506848771.46,44683,18.56,74292.8,10.95,-36.79,-37.81,0,*4B
1506848772.68,44684,18.56,74288.8,10.93,-36.37,-37.33,0,*49
1506848773.9,44685,18.56,74294.3,10.95,-36.31,-37.33,0,*48
1506848775.16,44686,18.56,74294.8,10.97,-36.61,-37.63,0,*49
1506848776.41,44687,18.56,74292.5,10.95,-37.15,-38.23,0,*43
1506848777.64,44688,18.56,74292.3,10.97,-36.67,-37.63,0,*41
1506848778.84,44689,18.56,74294.0,10.97,-36.31,-37.27,0,*43
1506848780.03,44690,18.5,74288.5,10.97,-35.89,-36.85,0,*42
1506848781.28,44691,18.56,74292.8,10.97,-36.13,-37.09,0,*46
1506848782.5,44692,18.56,74292.0,10.99,-36.01,-36.85,0,*4D
1506848783.72,44693,18.5,74288.3,10.99,-36.01,-37.03,0,*43
1506848784.98,44694,18.56,74292.8,11.01,-36.37,-37.21,0,*41
1506848786.22,44695,18.56,74290.5,10.99,-36.79,-37.75,0,*4B
1506848787.48,44696,18.56,74288.5,11.01,-35.83,-36.79,0,*43
1506848788.74,44697,18.56,74288.5,11.03,-35.47,-36.49,0,*4B
1506848790.02,44698,18.5,74288.3,11.03,-36.13,-37.09,0,*43
1506848791.26,44699,18.56,74290.8,11.03,-36.01,-36.97,0,*47
1506848792.51,44700,18.5,74290.3,11.05,-37.15,-38.23,0,*45
1506848793.79,44701,18.56,74290.5,11.03,-36.61,-37.63,0,*4B
1506848795.03,44702,18.56,74292.0,11.05,-37.09,-38.05,0,*4E
1506848796.25,44703,18.5,74288.5,11.05,-37.87,-38.85,0,*41
1506848797.53,44704,18.56,74290.5,11.03,-38.67,-39.79,0,*43
1506848798.8,44705,18.5,74294.3,11.03,-37.63,-38.61,0,*41
1506848800.03,44706,18.56,74294.0,11.03,-37.75,-38.85,0,*4F
1506848801.25,44707,18.56,74294.5,10.99,-38.73,-39.65,0,*4A
1506848802.48,44708,18.5,74290.5,11.01,-38.29,-39.35,0,*4F
1506848803.73,44709,18.5,74288.8,10.99,-37.57,-38.49,0,*42
1506848804.97,44710,18.56,74292.3,10.99,-36.37,-37.33,0,*4F
1506848806.19,44711,18.5,74286.0,10.99,-36.55,-37.33,0,*4A
1506848807.42,44712,18.5,74290.0,11.01,-35.71,-36.79,0,*43
1506848808.7,44713,18.5,74290.3,11.03,-35.65,-36.61,0,*4C
1506848809.94,44714,18.5,74288.3,11.05,-35.59,-36.49,0,*48
1506848811.17,44715,18.5,74286.8,11.05,-36.49,-37.45,0,*46
1506848812.42,44716,18.5,74288.8,11.07,-35.77,-36.67,0,*48
1506848813.65,44717,18.5,74288.3,11.11,-36.01,-36.97,0,*43
1506848814.89,44718,18.5,74290.0,11.07,-37.03,-37.87,0,*48
1506848816.13,44719,18.5,74290.8,11.11,-37.33,-38.17,0,*4B
1506848817.4,44720,18.5,74290.5,11.07,-36.85,-37.81,0,*4A
1506848818.67,44721,18.5,74290.3,11.07,-36.67,-37.63,0,*4B
1506848819.93,44722,18.5,74294.0,11.07,-36.25,-37.03,0,*48
1506848821.23,44723,18.5,74292.0,11.11,-36.61,-37.63,0,*48
1506848822.46,44724,18.5,74288.8,11.11,-38.73,-39.65,0,*4A
1506848823.73,44725,18.5,74290.8,11.11,-36.97,-37.93,0,*48
1506848825.02,44726,18.5,74292.5,11.07,-37.39,-38.23,0,*4D
1506848826.29,44727,18.5,74292.0,11.07,-37.39,-38.35,0,*4B
1506848827.55,44728,18.5,74292.0,11.07,-38.05,-39.15,0,*47
1506848828.81,44729,18.5,74294.8,11.05,-38.29,-39.41,0,*4B
1506848830.09,44730,18.5,74288.8,11.03,-40.29,-41.55,0,*40
1506848831.38,44731,18.5,74294.0,11.03,-39.03,-40.21,0,*45
1506848832.61,44732,18.5,74294.8,11.01,-39.03,-40.03,0,*44
1506848833.85,44733,18.5,74298.3,10.99,-36.67,-37.69,0,*44
1506848835.11,44734,18.5,74296.8,10.99,-37.15,-37.99,0,*48
1506848836.37,44735,18.5,74298.5,10.99,-36.61,-37.69,0,*44
1506848837.58,44736,18.5,74296.0,11.01,-36.07,-37.15,0,*4C
1506848838.79,44737,18.5,74294.8,11.01,-37.03,-38.17,0,*45
1506848840.06,44738,18.5,74294.3,11.03,-35.83,-36.73,0,*4E
1506848841.3,44739,18.5,74292.3,11.05,-36.91,-37.87,0,*43
1506848842.54,44740,18.5,74298.3,11.05,-37.27,-38.29,0,*4A
1506848843.78,44741,18.5,74292.3,11.05,-36.01,-37.09,0,*43
1506848845.0,44742,18.5,74292.0,11.05,-36.55,-37.27,0,*4D
1506848846.28,44743,18.5,74292.0,11.07,-35.95,-36.91,0,*4D
1506848847.52,44744,18.5,74292.8,11.07,-35.71,-36.73,0,*4C
1506848848.79,44745,18.5,74294.3,11.11,-37.03,-37.93,0,*42
1506848850.05,44746,18.5,74294.3,11.11,-36.37,-37.15,0,*49
1506848851.34,44747,18.5,74294.3,11.11,-36.25,-37.21,0,*4C
1506848852.64,44748,18.5,74294.0,11.07,-37.81,-38.79,0,*49
1506848853.9,44749,18.5,74292.0,11.11,-36.37,-37.33,0,*42
1506848855.15,44750,18.5,74294.3,11.11,-37.15,-38.11,0,*44
1506848856.42,44751,18.5,74294.3,11.11,-36.43,-37.39,0,*42
1506848857.71,44752,18.5,74292.3,11.11,-36.37,-37.39,0,*42
1506848858.97,44753,18.5,74296.8,11.11,-37.57,-38.67,0,*40
1506848860.26,44754,18.5,74294.8,11.11,-37.51,-38.49,0,*4D
1506848861.52,44755,18.5,74292.3,11.13,-36.61,-37.63,0,*4B
1506848862.74,44756,18.5,74292.3,11.13,-36.43,-37.15,0,*49
1506848863.97,44757,18.5,74296.8,11.13,-36.79,-37.75,0,*47
1506848865.24,44758,18.5,74294.8,11.13,-36.37,-37.39,0,*4A
1506848866.48,44759,18.5,74294.3,11.13,-36.43,-37.39,0,*48
1506848867.69,44760,18.5,74288.3,11.13,-35.71,-36.67,0,*4A
1506848868.95,44761,18.5,74296.0,11.15,-36.37,-37.33,0,*4C
1506848870.19,44762,18.5,74294.8,11.15,-36.73,-37.57,0,*4D
1506848871.45,44763,18.5,74294.5,11.17,-36.91,-37.93,0,*4A
1506848872.67,44764,18.5,74292.3,11.17,-36.73,-37.57,0,*49
1506848873.92,44765,18.5,74292.3,11.17,-35.83,-36.91,0,*4F
1506848875.16,44766,18.5,74292.5,11.17,-38.23,-39.09,0,*45
1506848876.4,44767,18.5,74292.3,11.15,-37.87,-38.85,0,*42
1506848877.64,44768,18.5,74294.8,11.17,-37.75,-38.91,0,*47
1506848878.9,44769,18.5,74294.0,11.15,-37.69,-38.43,0,*46
1506848880.16,44770,18.5,74294.8,11.17,-36.61,-37.51,0,*49
1506848881.4,44771,18.5,74294.0,11.15,-36.19,-37.33,0,*41
1506848882.66,44772,18.5,74290.8,11.15,-36.31,-37.09,0,*41
1506848883.89,44773,18.44,74288.3,11.17,-36.73,-37.69,0,*42
1506848885.16,44774,18.5,74290.8,11.19,-36.73,-37.69,0,*4B
1506848886.43,44775,18.5,74292.3,11.19,-37.39,-38.35,0,*43
1506848887.69,44776,18.5,74292.8,11.19,-36.31,-37.39,0,*4A
1506848888.95,44777,18.5,74292.8,11.17,-36.91,-38.11,0,*4A
1506848890.22,44778,18.5,74296.5,11.19,-36.67,-37.69,0,*42
1506848891.48,44779,18.5,74292.0,11.19,-37.27,-38.23,0,*47
1506848892.72,44780,18.5,74294.5,11.17,-37.51,-38.43,0,*48
1506848893.98,44781,18.5,74294.5,11.19,-36.49,-37.45,0,*46
1506848895.25,44782,18.5,74292.5,11.19,-36.85,-37.81,0,*4D
1506848896.51,44783,18.5,74294.3,11.19,-36.13,-37.03,0,*49
1506848897.77,44784,18.44,74292.0,11.19,-37.09,-38.05,0,*4D
1506848898.99,44785,18.44,74290.0,11.21,-36.31,-37.33,0,*47